Location: Nairn
(57.5833°N, 3.8667°W)
Time: 18:12:21
(UTC+00:00)

Cosmos 2360 Rocket - Pass Details

Date: 07 August 2020
Orbit: 834 x 845 km, 71.0° (Epoch: 23 September)

Event Time Altitude Azimuth Distance (km) Brightness Sun altitude
Rises 00:23:44 0° 321° (NW) 3,418 6.2 -16.1°
Reaches altitude 10° 00:26:27 10° 312° (NW) 2,479 5.2 -16.1°
Maximum altitude 00:31:19 31° 253° (WSW) 1,462 3.3 -16.0°
Enters shadow 00:33:53 21° 211° (SSW) 1,797 3.4 -16.0°
